Location: site
(53.0000°N, 23.0500°E)
Time: 22:33:30
(UTC+01:00)

SAOCOM 1-A - Pass Details

Date: 21 January 2020
Orbit: 621 x 623 km, 97.9° (Epoch: 24 February)

Event Time Altitude Azimuth Distance (km) Brightness Sun altitude
Exits shadow 20:03:31 - 331° (NNW) 2,084 ? -37.2°
Reaches altitude 10° 20:04:10 10° 323° (NW) 2,005 ? -37.3°
Maximum altitude 20:05:09 11° 310° (NW) 1,957 ? -37.5°
Drops below altitude 10° 20:06:08 10° 297° (WNW) 2,002 ? -37.6°
Sets 20:10:07 0° 260° (W) 2,902 ? -38.2°
